Location: *
(50.5492°N, 7.7469°E)
Time: 14:09:10
(UTC+00:00)

STARLINK-36 - Pass Details

Date: 21 October 2019
Orbit: 548 x 551 km, 53.0° (Epoch: 12 November)

Event Time Altitude Azimuth Distance (km) Brightness Sun altitude
Rises 18:17:07 0° 281° (W) 2,719 8.9 -18.4°
Reaches altitude 10° 18:19:22 10° 284° (WNW) 1,825 7.5 -18.7°
Maximum altitude 18:23:29 63° 6° (N) 618 3.8 -19.4°
Enters shadow 18:24:24 48° 61° (ENE) 727 3.8 -19.5°
